Location: *
(33.8649°S, 62.1526°E)
Time: 12:16:12
(UTC+00:00)

SPOT 1/Viking Rocket - Pass Details

Date: 17 January 2021
Orbit: 777 x 794 km, 98.4° (Epoch: 02 March)

Event Time Altitude Azimuth Distance (km) Brightness Sun altitude
Rises 18:11:17 0° 173° (S) 3,327 7.5 -29.5°
Reaches altitude 10° 18:13:39 10° 176° (S) 2,391 6.7 -29.8°
Enters shadow 18:18:41 59° 245° (WSW) 927 4.0 -30.3°
